Location: Artiguedieu
(43.5000°N, 0.5454°E)
Time: 07:20:27
(UTC+00:00)

Transit 2A - All Passes

Search period start: 24 July 2021 00:00
Search period end: 03 August 2021 00:00
Orbit: 598 x 960 km, 66.7° (Epoch: 23 July)

Date Brightness Start Highest point End Pass type
(mag) Time Alt. Az. Time Alt. Az. Time Alt. Az.
24 Jul - 08:03:36 10° SSW 08:07:56 83° ESE 08:12:32 10° NNE daylight
24 Jul - 09:49:07 10° WNW 09:51:47 15° NW 09:54:34 10° N daylight
24 Jul - 15:05:32 10° N 15:09:12 18° NE 15:13:05 10° E daylight
24 Jul - 16:47:37 10° NNW 16:53:03 88° ENE 16:59:00 10° SSE daylight
24 Jul - 18:32:37 10° WNW 18:35:40 15° WSW 18:38:50 10° SW daylight
25 Jul - 07:29:35 10° SSW 07:33:48 53° ESE 07:38:14 10° NE daylight
25 Jul - 09:13:57 10° W 09:17:18 21° NW 09:20:50 10° N daylight
25 Jul - 14:31:52 10° N 14:34:41 14° NE 14:37:38 10° ENE daylight
25 Jul - 16:13:28 10° NNW 16:18:49 64° NE 16:24:42 10° SE daylight
25 Jul - 17:57:31 10° WNW 18:01:40 22° WSW 18:06:04 10° SSW daylight
26 Jul - 06:55:49 10° S 06:59:43 34° ESE 07:03:49 10° NE daylight
26 Jul - 08:39:05 10° WSW 08:42:53 28° NW 08:46:56 10° NNE daylight
26 Jul - 13:58:37 10° NNE 14:00:06 11° NNE 14:01:38 10° NE daylight
26 Jul - 15:39:22 10° NNW 15:44:33 46° NE 15:50:12 10° SE daylight
26 Jul - 17:22:49 10° NW 17:27:37 31° WSW 17:32:48 10° S daylight
27 Jul - 06:22:21 10° SSE 06:25:42 22° ESE 06:29:11 10° ENE daylight
27 Jul - 08:04:25 10° WSW 08:08:33 40° NW 08:12:56 10° NNE daylight
27 Jul - 15:05:22 10° NNW 15:10:14 34° NE 15:15:31 10° ESE daylight
27 Jul - 16:48:20 10° NW 16:53:32 44° WSW 16:59:11 10° S daylight
28 Jul - 05:49:25 10° SE 05:51:46 14° ESE 05:54:09 10° ENE daylight
28 Jul - 07:29:58 10° SW 07:34:15 60° NW 07:38:52 10° NNE daylight
28 Jul - 09:17:09 10° NW 09:18:33 11° NNW 09:19:58 10° NNW daylight
28 Jul - 14:31:25 10° N 14:35:52 26° NE 14:40:38 10° E daylight
28 Jul - 16:13:59 10° NW 16:19:24 63° WSW 16:25:19 10° SSE daylight
29 Jul - 06:55:42 10° SSW 07:00:03 90° ENE 07:04:42 10° NNE daylight
29 Jul - 08:41:25 10° WNW 08:43:59 15° NW 08:46:40 10° N daylight
29 Jul - 13:57:33 10° N 14:01:25 20° NE 14:05:33 10° E daylight
29 Jul - 15:39:44 10° NNW 15:45:14 87° WSW 15:51:15 10° SSE daylight
29 Jul - 17:25:00 10° WNW 17:27:49 14° WSW 17:30:43 10° SW daylight
30 Jul - 06:21:38 10° SSW 06:25:54 58° ESE 06:30:26 10° NE daylight
30 Jul - 08:06:12 10° W 08:09:29 20° NW 08:12:57 10° N daylight
30 Jul - 13:23:49 10° N 13:26:55 15° NE 13:30:10 10° ENE daylight
30 Jul - 15:05:34 10° NNW 15:11:01 68° ENE 15:16:59 10° SE daylight
30 Jul - 16:49:46 10° WNW 16:53:49 21° WSW 16:58:06 10° SSW daylight
31 Jul - 05:47:49 10° S 05:51:49 37° ESE 05:56:03 10° NE daylight
31 Jul - 07:31:17 10° WSW 07:35:03 27° NW 07:39:04 10° NNE daylight
31 Jul - 12:50:22 10° NNE 12:52:21 12° NNE 12:54:23 10° NE daylight
31 Jul - 14:31:28 10° NNW 14:36:45 49° NE 14:42:31 10° SE daylight
31 Jul - 16:15:01 10° NW 16:19:47 29° WSW 16:24:54 10° SSW daylight
01 Aug - 05:14:17 10° SSE 05:17:48 24° ESE 05:21:28 10° NE daylight
01 Aug - 06:56:35 10° WSW 07:00:41 37° NW 07:05:05 10° NNE daylight
01 Aug - 13:57:26 10° NNW 14:02:27 36° NE 14:07:52 10° ESE daylight
01 Aug - 15:40:30 10° NW 15:45:42 41° WSW 15:51:20 10° S daylight
02 Aug - 04:41:12 10° SE 04:43:50 16° ESE 04:46:32 10° ENE daylight
02 Aug - 06:22:05 10° SW 06:26:23 55° NW 06:31:01 10° NNE daylight
02 Aug - 08:09:36 10° NW 08:10:46 11° NNW 08:11:57 10° NNW daylight
02 Aug - 13:23:28 10° NNW 13:28:05 27° NE 13:33:02 10° ESE daylight
02 Aug - 15:06:08 10° NW 15:11:35 59° WSW 15:17:31 10° SSE daylight
